Hourly Weather Zydowo

Today, 26 February, Friday

Time Temperature Precipitation Wind Pressure Humidity
00:00 +8°C° 0 mm 3 mps 760 mmHg 89%
01:00 +8°C° 0 mm 3 mps 760 mmHg 91%
02:00 +7°C° 0 mm 3 mps 760 mmHg 92%
03:00 +7°C° 0 mm 3 mps 760 mmHg 93%
04:00 +7°C° 0 mm 2 mps 760 mmHg 94%
05:00 +6°C° 0 mm 2 mps 760 mmHg 94%
06:00 +6°C° 0 mm 2 mps 760 mmHg 95%
07:00 +6°C° 0 mm 2 mps 760 mmHg 95%
08:00 +6°C° 0.4 mm 2 mps 760 mmHg 94%
09:00 +5°C° 0.4 mm 3 mps 760 mmHg 93%
10:00 +5°C° 0.4 mm 3 mps 760 mmHg 92%
11:00 +5°C° 0.9 mm 3 mps 760 mmHg 89%
12:00 +5°C° 0.9 mm 3 mps 760 mmHg 86%
13:00 +5°C° 0.9 mm 4 mps 760 mmHg 83%
14:00 +6°C° 0 mm 4 mps 760 mmHg 79%
15:00 +6°C° 0 mm 4 mps 760 mmHg 75%
16:00 +7°C° 0 mm 4 mps 760 mmHg 71%
17:00 +6°C° 0 mm 4 mps 760 mmHg 73%
18:00 +5°C° 0 mm 4 mps 760 mmHg 75%
19:00 +5°C° 0 mm 5 mps 760 mmHg 77%
20:00 +3°C° 0 mm 5 mps 760 mmHg 80%
21:00 +3°C° 0 mm 5 mps 760 mmHg 82%
22:00 +2°C° 0 mm 5 mps 760 mmHg 84%
23:00 +2°C° 0 mm 5 mps 760 mmHg 84%

Tomorrow, 27 February, Saturday

Time Temperature Precipitation Wind Pressure Humidity
00:00 +2°C° 0 mm 6 mps 760 mmHg 84%
01:00 +2°C° 0 mm 6 mps 761 mmHg 84%
02:00 +2°C° 0 mm 6 mps 760 mmHg 85%
03:00 +2°C° 0 mm 6 mps 760 mmHg 85%
04:00 +2°C° 0 mm 6 mps 760 mmHg 86%
05:00 +2°C° 0 mm 6 mps 761 mmHg 87%
06:00 +2°C° 0 mm 6 mps 761 mmHg 88%
07:00 +1°C° 0 mm 5 mps 762 mmHg 89%
08:00 +2°C° 0 mm 6 mps 762 mmHg 85%
09:00 +3°C° 0 mm 6 mps 762 mmHg 81%
10:00 +3°C° 0 mm 6 mps 763 mmHg 78%
11:00 +4°C° 0 mm 6 mps 763 mmHg 73%
12:00 +5°C° 0 mm 6 mps 763 mmHg 68%
13:00 +5°C° 0 mm 6 mps 763 mmHg 63%
14:00 +5°C° 0 mm 6 mps 764 mmHg 64%
15:00 +6°C° 0 mm 5 mps 764 mmHg 64%
16:00 +6°C° 0 mm 5 mps 764 mmHg 64%
17:00 +5°C° 0 mm 4 mps 764 mmHg 69%
18:00 +4°C° 0 mm 4 mps 764 mmHg 74%
19:00 +2°C° 0 mm 3 mps 765 mmHg 79%
20:00 +2°C° 0 mm 3 mps 765 mmHg 82%
21:00 +1°C° 0 mm 3 mps 765 mmHg 85%
22:00 0°C° 0 mm 3 mps 765 mmHg 88%
23:00 0°C° 0 mm 3 mps 766 mmHg 89%

Day after tomorrow, 28 February, Sunday

Time Temperature Precipitation Wind Pressure Humidity
00:00 -1°C° 0 mm 3 mps 766 mmHg 90%
01:00 -1°C° 0 mm 3 mps 766 mmHg 91%
02:00 -1°C° 0 mm 3 mps 766 mmHg 90%
03:00 -1°C° 0 mm 2 mps 766 mmHg 89%
04:00 -1°C° 0 mm 2 mps 766 mmHg 88%
05:00 -1°C° 0 mm 2 mps 766 mmHg 88%
06:00 -1°C° 0 mm 2 mps 766 mmHg 87%
07:00 -1°C° 0 mm 2 mps 767 mmHg 87%
08:00 +1°C° 0 mm 2 mps 767 mmHg 81%
09:00 +2°C° 0 mm 3 mps 767 mmHg 75%
10:00 +3°C° 0 mm 3 mps 767 mmHg 69%
11:00 +4°C° 0 mm 3 mps 767 mmHg 66%
12:00 +5°C° 0 mm 3 mps 767 mmHg 62%
13:00 +6°C° 0 mm 4 mps 767 mmHg 59%
14:00 +7°C° 0 mm 3 mps 766 mmHg 61%
15:00 +7°C° 0 mm 3 mps 766 mmHg 64%
16:00 +7°C° 0 mm 2 mps 766 mmHg 66%
17:00 +6°C° 0 mm 2 mps 766 mmHg 71%
18:00 +3°C° 0 mm 3 mps 766 mmHg 76%
19:00 +2°C° 0 mm 3 mps 767 mmHg 82%
20:00 +2°C° 0 mm 3 mps 767 mmHg 85%
21:00 +2°C° 0 mm 2 mps 767 mmHg 88%
22:00 +2°C° 0 mm 2 mps 767 mmHg 92%
23:00 +2°C° 0 mm 2 mps 767 mmHg 93%

1 March, Monday

Time Temperature Precipitation Wind Pressure Humidity
00:00 +1°C° 0 mm 2 mps 767 mmHg 93%
01:00 +1°C° 0 mm 2 mps 768 mmHg 94%
02:00 +1°C° 0 mm 2 mps 768 mmHg 94%
03:00 +1°C° 0 mm 2 mps 767 mmHg 94%
04:00 +1°C° 0 mm 2 mps 767 mmHg 94%
05:00 +1°C° 0 mm 2 mps 768 mmHg 95%
06:00 +2°C° 0 mm 1 mps 768 mmHg 95%
07:00 +1°C° 0 mm 1 mps 768 mmHg 95%
08:00 +3°C° 0 mm 1 mps 768 mmHg 90%
09:00 +4°C° 0 mm 1 mps 768 mmHg 85%
10:00 +5°C° 0 mm 1 mps 769 mmHg 81%
11:00 +6°C° 0 mm 1 mps 769 mmHg 77%
12:00 +7°C° 0 mm 1 mps 769 mmHg 73%
13:00 +8°C° 0 mm 1 mps 769 mmHg 69%
14:00 +8°C° 0 mm 1 mps 769 mmHg 70%
15:00 +9°C° 0 mm 1 mps 768 mmHg 71%
16:00 +9°C° 0 mm 1 mps 768 mmHg 72%
17:00 +7°C° 0 mm 1 mps 768 mmHg 77%
18:00 +6°C° 0 mm 1 mps 768 mmHg 82%
19:00 +5°C° 0 mm 1 mps 769 mmHg 86%
20:00 +5°C° 0 mm 1 mps 769 mmHg 86%
21:00 +5°C° 0 mm 1 mps 769 mmHg 87%
22:00 +4°C° 0 mm 1 mps 769 mmHg 87%
23:00 +3°C° 0 mm 2 mps 769 mmHg 87%

2 March, Tuesday

Time Temperature Precipitation Wind Pressure Humidity
00:00 +3°C° 0 mm 2 mps 769 mmHg 88%
01:00 +2°C° 0 mm 2 mps 769 mmHg 88%
02:00 +2°C° 0 mm 2 mps 769 mmHg 89%
03:00 +2°C° 0 mm 2 mps 768 mmHg 89%
04:00 +2°C° 0 mm 2 mps 768 mmHg 89%
05:00 +2°C° 0 mm 2 mps 768 mmHg 89%
06:00 +1°C° 0 mm 2 mps 768 mmHg 89%
07:00 +1°C° 0 mm 2 mps 768 mmHg 89%
08:00 +3°C° 0 mm 2 mps 768 mmHg 84%
09:00 +5°C° 0 mm 2 mps 768 mmHg 78%
10:00 +6°C° 0 mm 2 mps 768 mmHg 72%
11:00 +8°C° 0 mm 2 mps 768 mmHg 67%
12:00 +9°C° 0 mm 2 mps 768 mmHg 62%
13:00 +10°C° 0 mm 2 mps 767 mmHg 57%
14:00 +10°C° 0 mm 2 mps 767 mmHg 58%
15:00 +10°C° 0 mm 2 mps 767 mmHg 59%
16:00 +10°C° 0 mm 2 mps 766 mmHg 60%
17:00 +10°C° 0 mm 1 mps 766 mmHg 64%
18:00 +8°C° 0 mm 1 mps 766 mmHg 67%
19:00 +7°C° 0 mm 1 mps 766 mmHg 70%
20:00 +6°C° 0 mm 2 mps 766 mmHg 72%
21:00 +5°C° 0 mm 2 mps 766 mmHg 73%
22:00 +5°C° 0 mm 2 mps 766 mmHg 75%
23:00 +4°C° 0 mm 2 mps 766 mmHg 77%

3 March, Wednesday

Time Temperature Precipitation Wind Pressure Humidity
00:00 +4°C° 0 mm 2 mps 765 mmHg 79%
01:00 +3°C° 0 mm 2 mps 765 mmHg 81%
02:00 +3°C° 0 mm 2 mps 765 mmHg 82%
03:00 +3°C° 0 mm 2 mps 765 mmHg 83%
04:00 +2°C° 0 mm 2 mps 764 mmHg 84%
05:00 +2°C° 0 mm 2 mps 764 mmHg 84%
06:00 +2°C° 0 mm 2 mps 764 mmHg 84%
07:00 +2°C° 0 mm 2 mps 764 mmHg 85%
08:00 +2°C° 0 mm 3 mps 764 mmHg 80%
09:00 +4°C° 0 mm 3 mps 764 mmHg 76%
10:00 +5°C° 0 mm 4 mps 764 mmHg 72%
11:00 +6°C° 0 mm 4 mps 763 mmHg 69%
12:00 +8°C° 0 mm 4 mps 763 mmHg 66%
13:00 +10°C° 0 mm 4 mps 763 mmHg 63%
14:00 +10°C° 0 mm 4 mps 762 mmHg 64%
15:00 +9°C° 0 mm 3 mps 762 mmHg 66%
16:00 +9°C° 0 mm 3 mps 762 mmHg 68%
17:00 +8°C° 0 mm 3 mps 761 mmHg 73%
18:00 +7°C° 0 mm 3 mps 761 mmHg 78%
19:00 +5°C° 0 mm 3 mps 761 mmHg 83%
20:00 +4°C° 0 mm 3 mps 761 mmHg 85%
21:00 +4°C° 0 mm 3 mps 761 mmHg 86%
22:00 +4°C° 0 mm 3 mps 761 mmHg 88%
23:00 +3°C° 0 mm 3 mps 760 mmHg 88%
Show more